When you browse on this site, cookies collect data to enhance your experience and personalize the content and advertising you see.
Visit our Privacy Policy to learn more. By continuing to use the site, you agree to this use of cookies and data.
  • en Belgique
  • Liste des pays
  • À 7 jours
  • Température de l'eau
  • Carte météo
  • Widgets météo
  • user-avatar
    Se connecter

    Météo par heure à Dunkerque

    Ce jour, 6 Juin, Samedi

    Heure Température Précipitation Vent Pression Humidité
    00:00 +7°C° 0 mm 6 m/s 748 mmHg 82%
    01:00 +7°C° 0.2 mm 6 m/s 748 mmHg 83%
    02:00 +7°C° 0.2 mm 6 m/s 748 mmHg 85%
    03:00 +7°C° 0.2 mm 6 m/s 748 mmHg 86%
    04:00 +8°C° 0.3 mm 7 m/s 749 mmHg 83%
    05:00 +8°C° 0.3 mm 7 m/s 749 mmHg 80%
    06:00 +9°C° 0.3 mm 8 m/s 749 mmHg 77%
    07:00 +10°C° 0 mm 9 m/s 749 mmHg 69%
    08:00 +9°C° 0 mm 10 m/s 749 mmHg 62%
    09:00 +11°C° 0 mm 11 m/s 749 mmHg 55%
    10:00 +12°C° 0 mm 12 m/s 749 mmHg 55%
    11:00 +12°C° 0 mm 12 m/s 749 mmHg 56%
    12:00 +12°C° 0 mm 13 m/s 749 mmHg 56%
    13:00 +12°C° 0 mm 13 m/s 749 mmHg 59%
    14:00 +12°C° 0 mm 13 m/s 749 mmHg 62%
    15:00 +10°C° 0 mm 13 m/s 749 mmHg 65%
    16:00 +10°C° 0.6 mm 12 m/s 749 mmHg 72%
    17:00 +9°C° 0.6 mm 11 m/s 749 mmHg 78%
    18:00 +9°C° 0.6 mm 11 m/s 749 mmHg 84%
    19:00 +9°C° 0.4 mm 10 m/s 749 mmHg 85%
    20:00 +10°C° 0.4 mm 9 m/s 750 mmHg 87%
    21:00 +10°C° 0.4 mm 8 m/s 750 mmHg 88%
    22:00 +10°C° 0.4 mm 7 m/s 750 mmHg 88%
    23:00 +9°C° 0.4 mm 7 m/s 750 mmHg 89%

    Demain, 7 Juin, Dimanche

    Heure Température Précipitation Vent Pression Humidité
    00:00 +9°C° 0.4 mm 6 m/s 750 mmHg 89%
    01:00 +9°C° 0.1 mm 6 m/s 751 mmHg 88%
    02:00 +8°C° 0.1 mm 6 m/s 751 mmHg 88%
    03:00 +8°C° 0.1 mm 6 m/s 752 mmHg 87%
    04:00 +9°C° 0 mm 6 m/s 752 mmHg 85%
    05:00 +9°C° 0 mm 6 m/s 753 mmHg 83%
    06:00 +10°C° 0 mm 6 m/s 753 mmHg 81%
    07:00 +12°C° 0 mm 5 m/s 754 mmHg 75%
    08:00 +14°C° 0 mm 5 m/s 755 mmHg 69%
    09:00 +15°C° 0 mm 5 m/s 755 mmHg 63%
    10:00 +16°C° 0 mm 5 m/s 756 mmHg 60%
    11:00 +16°C° 0 mm 5 m/s 756 mmHg 58%
    12:00 +18°C° 0 mm 4 m/s 756 mmHg 55%
    13:00 +18°C° 0 mm 4 m/s 756 mmHg 55%
    14:00 +17°C° 0 mm 5 m/s 757 mmHg 55%
    15:00 +19°C° 0 mm 5 m/s 757 mmHg 55%
    16:00 +18°C° 0 mm 4 m/s 757 mmHg 60%
    17:00 +17°C° 0 mm 4 m/s 757 mmHg 65%
    18:00 +17°C° 0 mm 4 m/s 757 mmHg 70%
    19:00 +14°C° 0 mm 4 m/s 758 mmHg 76%
    20:00 +13°C° 0 mm 4 m/s 758 mmHg 81%
    21:00 +12°C° 0 mm 4 m/s 759 mmHg 87%
    22:00 +11°C° 0 mm 4 m/s 759 mmHg 88%
    23:00 +11°C° 0 mm 4 m/s 759 mmHg 89%

    Après-demain, 8 Juin, Lundi

    Heure Température Précipitation Vent Pression Humidité
    00:00 +11°C° 0 mm 4 m/s 759 mmHg 90%
    01:00 +11°C° 0 mm 4 m/s 760 mmHg 91%
    02:00 +11°C° 0 mm 4 m/s 760 mmHg 91%
    03:00 +11°C° 0 mm 4 m/s 760 mmHg 92%
    04:00 +12°C° 0.1 mm 5 m/s 760 mmHg 89%
    05:00 +12°C° 0.1 mm 5 m/s 760 mmHg 85%
    06:00 +13°C° 0.1 mm 5 m/s 761 mmHg 82%
    07:00 +13°C° 0.2 mm 6 m/s 761 mmHg 82%
    08:00 +14°C° 0.2 mm 6 m/s 762 mmHg 81%
    09:00 +14°C° 0.2 mm 7 m/s 762 mmHg 81%
    10:00 +14°C° 0.1 mm 7 m/s 762 mmHg 78%
    11:00 +14°C° 0.1 mm 7 m/s 762 mmHg 75%
    12:00 +15°C° 0.1 mm 6 m/s 762 mmHg 71%
    13:00 +15°C° 0 mm 7 m/s 762 mmHg 69%
    14:00 +15°C° 0 mm 7 m/s 762 mmHg 67%
    15:00 +15°C° 0 mm 7 m/s 763 mmHg 64%
    16:00 +14°C° 0 mm 7 m/s 763 mmHg 67%
    17:00 +14°C° 0 mm 7 m/s 763 mmHg 70%
    18:00 +12°C° 0 mm 7 m/s 763 mmHg 73%
    19:00 +11°C° 0 mm 7 m/s 764 mmHg 75%
    20:00 +10°C° 0 mm 6 m/s 764 mmHg 77%
    21:00 +9°C° 0 mm 5 m/s 764 mmHg 80%
    22:00 +9°C° 0 mm 5 m/s 765 mmHg 80%
    23:00 +9°C° 0 mm 5 m/s 765 mmHg 79%

    9 Juin, Mardi

    Heure Température Précipitation Vent Pression Humidité
    00:00 +9°C° 0 mm 5 m/s 765 mmHg 79%
    01:00 +8°C° 0 mm 5 m/s 765 mmHg 79%
    02:00 +8°C° 0 mm 5 m/s 765 mmHg 79%
    03:00 +8°C° 0 mm 4 m/s 765 mmHg 78%
    04:00 +9°C° 0 mm 5 m/s 765 mmHg 76%
    05:00 +10°C° 0 mm 5 m/s 765 mmHg 73%
    06:00 +12°C° 0 mm 5 m/s 765 mmHg 70%
    07:00 +11°C° 0 mm 6 m/s 765 mmHg 69%
    08:00 +11°C° 0 mm 6 m/s 765 mmHg 67%
    09:00 +13°C° 0 mm 6 m/s 766 mmHg 66%
    10:00 +13°C° 0 mm 5 m/s 766 mmHg 64%
    11:00 +14°C° 0 mm 5 m/s 766 mmHg 61%
    12:00 +14°C° 0 mm 5 m/s 766 mmHg 59%
    13:00 +14°C° 0 mm 5 m/s 765 mmHg 59%
    14:00 +14°C° 0 mm 5 m/s 765 mmHg 59%
    15:00 +14°C° 0 mm 6 m/s 765 mmHg 59%
    16:00 +13°C° 0 mm 6 m/s 765 mmHg 61%
    17:00 +13°C° 0 mm 5 m/s 765 mmHg 63%
    18:00 +12°C° 0 mm 5 m/s 765 mmHg 65%
    19:00 +10°C° 0 mm 5 m/s 766 mmHg 70%
    20:00 +10°C° 0 mm 4 m/s 766 mmHg 76%
    21:00 +8°C° 0 mm 4 m/s 767 mmHg 81%
    22:00 +8°C° 0 mm 4 m/s 767 mmHg 81%
    23:00 +9°C° 0 mm 3 m/s 767 mmHg 81%

    10 Juin, Mercredi

    Heure Température Précipitation Vent Pression Humidité
    00:00 +8°C° 0 mm 3 m/s 767 mmHg 81%
    01:00 +8°C° 0 mm 3 m/s 767 mmHg 81%
    02:00 +8°C° 0 mm 2 m/s 766 mmHg 82%
    03:00 +8°C° 0 mm 2 m/s 766 mmHg 83%
    04:00 +9°C° 0 mm 2 m/s 766 mmHg 80%
    05:00 +10°C° 0 mm 2 m/s 767 mmHg 77%
    06:00 +12°C° 0 mm 2 m/s 767 mmHg 74%
    07:00 +12°C° 0 mm 3 m/s 767 mmHg 69%
    08:00 +13°C° 0 mm 3 m/s 767 mmHg 65%
    09:00 +14°C° 0 mm 4 m/s 767 mmHg 60%
    10:00 +15°C° 0 mm 4 m/s 767 mmHg 60%
    11:00 +15°C° 0 mm 4 m/s 767 mmHg 59%
    12:00 +16°C° 0 mm 5 m/s 767 mmHg 58%
    13:00 +16°C° 0 mm 5 m/s 767 mmHg 59%
    14:00 +15°C° 0 mm 5 m/s 767 mmHg 60%
    15:00 +15°C° 0 mm 5 m/s 767 mmHg 61%
    16:00 +15°C° 0 mm 5 m/s 767 mmHg 64%
    17:00 +14°C° 0 mm 5 m/s 767 mmHg 67%
    18:00 +14°C° 0 mm 5 m/s 767 mmHg 70%
    19:00 +13°C° 0 mm 5 m/s 767 mmHg 76%
    20:00 +12°C° 0 mm 4 m/s 768 mmHg 81%
    21:00 +10°C° 0 mm 4 m/s 768 mmHg 87%
    22:00 +10°C° 0 mm 4 m/s 768 mmHg 88%
    23:00 +10°C° 0 mm 3 m/s 768 mmHg 88%

    11 Juin, Jeudi

    Heure Température Précipitation Vent Pression Humidité
    00:00 +10°C° 0 mm 3 m/s 768 mmHg 89%
    01:00 +10°C° 0 mm 3 m/s 768 mmHg 90%
    02:00 +10°C° 0 mm 3 m/s 767 mmHg 90%
    03:00 +9°C° 0 mm 2 m/s 767 mmHg 90%
    04:00 +10°C° 0 mm 3 m/s 767 mmHg 88%
    05:00 +11°C° 0 mm 3 m/s 767 mmHg 85%
    06:00 +12°C° 0 mm 3 m/s 767 mmHg 83%
    07:00 +13°C° 0 mm 3 m/s 767 mmHg 77%
    08:00 +14°C° 0 mm 4 m/s 767 mmHg 72%
    09:00 +15°C° 0 mm 4 m/s 767 mmHg 66%
    10:00 +17°C° 0 mm 4 m/s 767 mmHg 63%
    11:00 +17°C° 0 mm 5 m/s 766 mmHg 60%
    12:00 +19°C° 0 mm 5 m/s 766 mmHg 57%
    13:00 +19°C° 0 mm 5 m/s 766 mmHg 59%
    14:00 +17°C° 0 mm 6 m/s 765 mmHg 61%
    15:00 +17°C° 0 mm 6 m/s 765 mmHg 62%
    16:00 +17°C° 0 mm 6 m/s 765 mmHg 65%
    17:00 +16°C° 0 mm 6 m/s 764 mmHg 69%
    18:00 +16°C° 0 mm 6 m/s 764 mmHg 72%
    19:00 +14°C° 0 mm 6 m/s 764 mmHg 78%
    20:00 +13°C° 0 mm 6 m/s 764 mmHg 84%
    21:00 +12°C° 0 mm 5 m/s 764 mmHg 90%
    22:00 +12°C° 0 mm 5 m/s 764 mmHg 90%
    23:00 +12°C° 0 mm 5 m/s 764 mmHg 91%
    Voir plus